Location: Essen
(51.4609°N, 7.0127°E)
Time: 18:25:22
(UTC+01:00)

ISS - Pass Details

Date: 05 January 2018
Orbit: 402 x 407 km, 51.6° (Epoch: 19 January)

Event Time Altitude Azimuth Distance (km) Brightness Sun altitude
Exits shadow 06:03:45 50° 88° (E) 527 -3.0 -22.6°
Drops below altitude 10° 06:06:22 10° 82° (E) 1,502 0.1 -22.2°
Sets 06:08:23 0° 81° (E) 2,334 1.3 -21.9°
